Location: Crescent
(42.8242°N, 73.7329°W)
Time: 16:14:40
(UTC+00:00)

Courier 1B - Pass Details

Date: 26 February 2026
Orbit: 962 x 1208 km, 28.3° (Epoch: 8 March)

Event Time Altitude Azimuth Distance (km) Brightness Sun altitude
Rises 01:30:18 0° 254° (WSW) 3,829 11.3 -31.7°
Reaches altitude 10° 01:33:54 10° 236° (WSW) 2,921 10.4 -32.3°
Enters shadow 01:38:08 18° 200° (SSW) 2,408 9.5 -33.1°
